Morgantown, WV

8:41 PM EST on January 20, 2017 (GMT -0500)
Morgantown Municipal-Hart

Weather History for KMGW - May, 2012

Change the Weather History Date:

Thursday, May 10, 2012

  Actual Average Record
Temperature  
Mean Temperature 52 °F 60 °F  
Max Temperature 61 °F 71 °F 91 °F (2015)
Min Temperature 42 °F 49 °F 25 °F (1947)
Degree Days  
Heating Degree Days 13 6  
Month to date heating degree days 22 73  
Since 1 July heating degree days 4091 5056  
Cooling Degree Days 0 1  
Month to date cooling degree days 46 10  
Year to date cooling degree days 81 26  
Growing Degree Days 1 (Base 50)    
Moisture  
Dew Point 44 °F    
Average Humidity 72    
Maximum Humidity 100    
Minimum Humidity 43    
Precipitation  
Precipitation 0.01 in 0.14 in 0.91 in (1998)
Month to date precipitation 2.27 1.39  
Year to date precipitation 11.25 13.97  
Sea Level Pressure  
Sea Level Pressure 29.85 in    
Wind  
Wind Speed 4 mph (WNW)    
Max Wind Speed 16 mph    
Max Gust Speed 24 mph    
Visibility 6 miles    
Events Fog , Rain    
T = Trace of Precipitation, MM = Missing Value Source: NWS Daily Summary

Daily Weather History Graph

Daily Weather History Graph

Search for Another Location

Airport or City:

Trip Planner

Search our weather history database for the weather conditions in past years. The results will help you decide how hot, cold, wet, or windy it might be!

Date:

Astronomy

May. 10, 2012 Rise Set
Actual Time 6:09 AM EDT 8:22 PM EDT
Civil Twilight 5:39 AM EDT 8:53 PM EDT
Nautical Twilight 5:02 AM EDT 9:30 PM EDT
Astronomical Twilight 4:22 AM EDT 10:10 PM EDT
Moon 12:20 AM EDT (5/10) 10:32 AM EDT (5/10)
Length of Visible Light 15h 13m
Length of Day
14h 13m
Waning Gibbous, 73% of the Moon is Illuminated
May 10
Waning Gibbous
May 12
Last Quarter
May 20
New
May 28
First Quarter
Jun 4
Full

Hourly Weather History & Observations

Time (EDT) Temp. Windchill Dew Point Humidity Pressure Visibility Wind Dir Wind Speed Gust Speed Precip Events Conditions
12:19 AM 48.2 °F - 48.2 °F 100% 29.79 in 1.2 mi Calm Calm - N/A   Scattered Clouds
12:28 AM 48.2 °F - 48.2 °F 100% 29.79 in 0.8 mi Calm Calm - N/A   Mist
12:53 AM 48.0 °F - 46.9 °F 96% 29.77 in 0.5 mi Calm Calm - N/A Fog Fog
1:03 AM 48.2 °F - 46.4 °F 93% 29.77 in 0.5 mi Calm Calm - N/A Fog Fog
1:06 AM 48.2 °F - 46.4 °F 93% 29.77 in 0.2 mi SSW 3.5 mph - N/A Fog Fog
1:15 AM 48.2 °F - 46.4 °F 93% 29.78 in 1.0 mi Calm Calm - N/A   Mist
1:28 AM 48.2 °F - 46.4 °F 93% 29.78 in 0.5 mi Calm Calm - N/A Fog Fog
1:43 AM 46.4 °F - 46.4 °F 100% 29.78 in 0.5 mi Calm Calm - N/A Fog Fog
1:53 AM 48.0 °F - 46.9 °F 96% 29.78 in 1.5 mi Calm Calm - N/A   Mostly Cloudy
2:03 AM 48.2 °F - 46.4 °F 93% 29.77 in 1.8 mi Calm Calm - N/A   Mostly Cloudy
2:06 AM 48.2 °F - 46.4 °F 93% 29.78 in 4.0 mi Calm Calm - N/A   Mostly Cloudy
2:13 AM 48.2 °F - 46.4 °F 93% 29.77 in 1.2 mi SW 3.5 mph - N/A   Mostly Cloudy
2:20 AM 48.2 °F - 46.4 °F 93% 29.77 in 0.2 mi Calm Calm - N/A Fog Fog
2:53 AM 46.9 °F - 46.0 °F 97% 29.78 in 0.2 mi Calm Calm - N/A Fog Fog
3:20 AM 46.4 °F - 46.4 °F 100% 29.77 in 1.0 mi Calm Calm - N/A   Mist
3:38 AM 46.4 °F - 46.4 °F 100% 29.78 in 2.0 mi Calm Calm - N/A   Scattered Clouds
3:53 AM 46.9 °F - 46.0 °F 97% 29.78 in 2.0 mi Calm Calm - N/A   Mostly Cloudy
4:03 AM 46.4 °F 45.2 °F 46.4 °F 100% 29.78 in 6.0 mi Variable 3.5 mph - N/A   Mostly Cloudy
4:33 AM 46.4 °F - 44.6 °F 93% 29.79 in 9.0 mi Calm Calm - N/A   Scattered Clouds
4:53 AM 46.9 °F - 46.0 °F 97% 29.79 in 8.0 mi Calm Calm - N/A   Mostly Cloudy
5:32 AM 46.4 °F - 44.6 °F 93% 29.79 in 8.0 mi Calm Calm - N/A   Overcast
5:53 AM 46.9 °F - 45.0 °F 93% 29.81 in 8.0 mi Calm Calm - N/A   Overcast
6:10 AM 46.4 °F - 44.6 °F 93% 29.80 in 9.0 mi Calm Calm - 0.01 in   Mostly Cloudy
6:29 AM 46.4 °F - 44.6 °F 93% 29.81 in 7.0 mi Calm Calm - 0.01 in   Overcast
6:49 AM 46.4 °F - 44.6 °F 93% 29.82 in 8.0 mi Calm Calm - 0.01 in   Overcast
6:53 AM 46.9 °F - 45.0 °F 93% 29.83 in 9.0 mi Calm Calm - 0.01 in   Overcast
7:53 AM 46.9 °F - 43.0 °F 86% 29.85 in 10.0 mi NNW 6.9 mph - N/A   Overcast
8:11 AM 48.2 °F - 44.6 °F 87% 29.86 in 10.0 mi NW 5.8 mph - N/A   Overcast
8:36 AM 48.2 °F - 42.8 °F 82% 29.86 in 10.0 mi Variable 6.9 mph - N/A   Mostly Cloudy
8:53 AM 50.0 °F - 43.0 °F 77% 29.87 in 10.0 mi West 5.8 mph - N/A   Overcast
9:53 AM 52.0 °F - 42.1 °F 69% 29.88 in 10.0 mi Variable 6.9 mph - N/A   Mostly Cloudy
10:05 AM 53.6 °F - 42.8 °F 67% 29.87 in 10.0 mi Variable 5.8 mph - N/A   Mostly Cloudy
10:53 AM 55.0 °F - 41.0 °F 59% 29.88 in 10.0 mi Variable 6.9 mph - N/A   Mostly Cloudy
11:53 AM 55.9 °F - 39.9 °F 55% 29.90 in 10.0 mi Variable 6.9 mph - N/A   Overcast
12:53 PM 57.9 °F - 39.0 °F 49% 29.89 in 10.0 mi Variable 6.9 mph - N/A   Mostly Cloudy
1:53 PM 59.0 °F - 37.0 °F 44% 29.88 in 10.0 mi West 10.4 mph - N/A   Mostly Cloudy
2:53 PM 59.0 °F - 37.9 °F 46% 29.88 in 10.0 mi WNW 10.4 mph - N/A   Scattered Clouds
3:53 PM 54.0 °F - 44.1 °F 69% 29.89 in 8.0 mi NNW 6.9 mph - 0.00 in Rain Light Rain
4:53 PM 60.1 °F - 39.0 °F 46% 29.89 in 10.0 mi Variable 3.5 mph - 0.00 in   Mostly Cloudy
5:53 PM 59.0 °F - 37.9 °F 46% 29.89 in 10.0 mi NNW 9.2 mph 18.4 mph N/A   Scattered Clouds
6:53 PM 57.2 °F - 42.8 °F 59% 29.91 in 10.0 mi SW 6.9 mph - N/A   Overcast
7:53 PM 57.0 °F - 37.9 °F 49% 29.94 in 10.0 mi NNW 5.8 mph - N/A   Scattered Clouds
8:53 PM 55.0 °F - 33.1 °F 43% 29.96 in 10.0 mi Variable 4.6 mph - N/A   Clear
9:53 PM 46.9 °F - 43.0 °F 86% 30.00 in 10.0 mi Calm Calm - N/A   Clear
10:53 PM 46.9 °F - 43.0 °F 86% 30.01 in 8.0 mi Calm Calm - N/A   Clear
11:12 PM 44.6 °F - 42.8 °F 93% 30.02 in 1.8 mi Calm Calm - N/A   Clear
11:24 PM 44.6 °F - 42.8 °F 93% 30.02 in 2.5 mi Calm Calm - N/A   Clear
11:31 PM 44.6 °F - 42.8 °F 93% 30.02 in 0.8 mi Calm Calm - N/A   Clear
11:35 PM 42.8 °F - 42.8 °F 100% 30.03 in 0.2 mi Calm Calm - N/A Fog Fog
11:53 PM 43.0 °F - 42.1 °F 97% 30.04 in 0.2 mi Calm Calm - N/A Fog Fog